Location: Widewater Village at Stafford
(38.4893°N, 77.3783°W)
Time: 07:38:13
(UTC+00:00)

ISS - Visible Passes

Search period start: 28 November 2022 00:00
Search period end: 08 December 2022 00:00
Orbit: 411 x 420 km, 51.6° (Epoch: 28 November)

Date Brightness Start Highest point End Pass type
(mag) Time Alt. Az. Time Alt. Az. Time Alt. Az.
29 Nov -1.2 23:07:06 10° N 23:07:19 10° N 23:07:19 10° N visible
01 Dec -1.7 23:05:10 10° NNW 23:06:54 15° NNE 23:06:54 15° NNE visible
02 Dec -1.5 22:16:50 10° N 22:18:08 12° NNE 22:19:26 10° NE visible
02 Dec -1.3 23:52:22 10° NW 23:53:15 17° NNW 23:53:15 17° NNW visible
03 Dec -2.7 23:03:45 10° NNW 23:06:39 27° NNE 23:06:50 27° NE visible
04 Dec -2.1 22:15:11 10° NNW 22:17:39 19° NNE 22:20:06 10° ENE visible
04 Dec -2.4 23:51:20 10° WNW 23:53:31 37° WNW 23:53:31 37° WNW visible
05 Dec -3.9 23:02:28 10° NW 23:05:47 68° NE 23:07:33 25° ESE visible
06 Dec -3.2 22:13:42 10° NW 22:16:52 38° NNE 22:19:58 10° ESE visible
06 Dec -1.2 23:50:50 10° W 23:53:22 21° SW 23:54:56 15° SSW visible
07 Dec -2.3 23:01:30 10° WNW 23:04:36 38° SW 23:07:41 10° SSE visible
